User: anonymous   Login
Location: D�derode
(51.8092°N, 10.1065°E)
Time: 04:37:57
(UTC+00:00)
Language:

Cosmos 923 Rocket - Orbit

View from above orbital plane
View from above orbital plane
View from above satellite
View from above satellite

Ground track
Ground track

The orbit data is extracted from the following two-line orbital elements,

1 10121U 77059B   21059.54128572  .00000022  00000-0  16579-4 0  9990
2 10121  74.0484 171.1233 0019099 192.7295 167.3378 14.35971641283969
Epoch (UTC): 28 February 2021 12:59:27
Eccentricity: 0.0019099
inclination: 74.0484°
perigee height: 758 km
apogee height: 785 km
right ascension of ascending node: 171.1233°
argument of perigee: 192.7295°
revolutions per day: 14.35971641
mean anomaly at epoch: 167.3378°
orbit number at epoch: 28396

The dashed part of the orbit path shows where the satellite is in the earth's shadow,  

DLR